Location: Moscow
(55.7500°N, 37.5830°E)
Time: 05:13:38
(UTC+03:00)

Vanguard 1 - Pass Details

Date: 09 December 2021
Orbit: 652 x 3830 km, 34.2° (Epoch: 21 January)

Event Time Altitude Azimuth Distance (km) Brightness Sun altitude
Rises 20:24:16 0° 177° (S) 6,400 14.1 -35.8°
Enters shadow 20:30:01 - 161° (SSE) 6,027 13.8 -36.6°
Reaches altitude 10° 20:31:12 10° 157° (SSE) 5,988 - -36.7°
Maximum altitude 20:40:22 15° 128° (SE) 6,095 - -38.0°
Drops below altitude 10° 20:50:40 10° 101° (E) 6,901 - -39.4°
Sets 20:59:48 0° 84° (E) 7,948 - -40.6°
